Regional Weather Roundup
Issued by NWS

Home | Current Version | Previous Version | Graphics & Text | Print | Product List | Glossary On
Versions: 1 2 3 4 5 6 7 8 9 10 11 12 13 14 15 16 17 18 19 20 21 22 23 24 25 26 27 28 29 30 31 32 33 34 35 36 37 38 39 40 41 42 43 44 45 46 47 48 49 50
000
ASUS43 KIND 262200
RWRIN

WEATHER ROUNDUP FOR INDIANA
NATIONAL WEATHER SERVICE INDIANAPOLIS IN
600 PM EDT FRI MAY 26 2017

NOTE: "FAIR" INDICATES FEW OR NO CLOUDS BELOW 12,000 FEET WITH NO
SIGNIFICANT WEATHER AND/OR OBSTRUCTIONS TO VISIBILITY.

* - STATION DOES NOT REPORT WEATHER SUCH AS PRECIPITATION OR FOG.

+ - STATION NOT QUALITY CONTROLLED BY THE NATIONAL WEATHER SERVICE.
    USE DATA WITH CAUTION...ESPECIALLY DEWPOINT AND RELATIVE
    HUMIDITY OBSERVATIONS.

INZ001>003-010>013-019-020-262300-
NORTHWEST INDIANA

CITY           SKY/WX    TMP DP  RH WIND       PRES   REMARKS
GARY /AIRPORT/ LGT RAIN  61  54  77 NE9       29.81S
MICHIGAN CITY+ CLOUDY    70  54  56 CALM      29.82F
MONTICELLO +   CLOUDY    74  58  56 E5        29.78F
RENSSELAER +   RAIN      72  54  53 E9        29.79F

$$

LMZ046-743>745-262300-
SOUTHERN LAKE MICHIGAN

STATION/POSITION TIME  TEMP    WIND        PRES    WAVE
                       AIR SEA DIR/SP/G            HT
                 (UTC) (F)     (DEG/KT/KT) (MB)    (FT)
BURNS HARBOR     2140   57      70/ 12/ 14 1009.8F
MICHIGAN CITY    2130   57      40/ 14/ 15   N/A
5NW MICH CITY    2150   55 53   60/ 10/ 12   N/A     1

$$

INZ004-005-014>016-021>024-262300-
NORTH CENTRAL INDIANA

CITY           SKY/WX    TMP DP  RH WIND       PRES   REMARKS
ELKHART        CLOUDY    70  55  60 S6        29.84R
GOSHEN         CLOUDY    72  51  47 S3        29.84S
SOUTH BEND     PTSUNNY   69  52  54 SE7       29.84F

$$

INZ006>009-017-018-025>027-262300-
NORTHEAST INDIANA

CITY           SKY/WX    TMP DP  RH WIND       PRES   REMARKS
FORT WAYNE     PTSUNNY   72  56  57 S7        29.86F
KENDALLVILLE + CLOUDY    71  53  54 SW7       29.87R

$$

INZ028-029-035-036-043>045-051>053-262300-
WEST CENTRAL INDIANA

CITY           SKY/WX    TMP DP  RH WIND       PRES   REMARKS
CRAWFORDSVL +  CLOUDY    75  63  64 SE12      29.78F
GREENCASTLE +  PTSUNNY   77  63  61 S7        29.81S
LAFAYETTE      CLOUDY    74  60  61 SE9       29.76F
TERRE HAUTE    CLOUDY    79  63  57 S12       29.78S

$$

INZ030>032-037>040-046>048-054>057-064-065-262300-
CENTRAL INDIANA

CITY           SKY/WX    TMP DP  RH WIND       PRES   REMARKS
COLUMBUS       MOSUNNY   77  57  50 S12       29.82F
GREENWOOD *+   MOSUNNY   77  59  53 S10G17    29.83S
INDIANAPOLIS   CLOUDY    75  60  59 SE10      29.81F
-EAGLE CREEK   PTSUNNY   78  59  51 S8        29.81F
KOKOMO +       SUNNY     74  60  61 SE7       29.83F
SHELBYVILLE    LGT RAIN  78  58  49 SE9       29.82F

$$

INZ033-034-041-042-049-050-058-059-262300-
EAST CENTRAL INDIANA

CITY           SKY/WX    TMP DP  RH WIND       PRES   REMARKS
MUNCIE         MOSUNNY   77  58  51 SW7       29.84F
RICHMOND +     MOSUNNY   75  57  53 SW9G17    29.87F

$$

INZ060-061-067>069-081>083-085>088-262300-
SOUTHWEST INDIANA

CITY           SKY/WX    TMP DP  RH WIND       PRES   REMARKS
EVANSVILLE     MOSUNNY   85  57  38 S16       29.79F
HUNTINGBURG *+ MOSUNNY   81  64  56 S14       29.81F

$$

INZ062-063-066-070>080-084-089>092-262300-
SOUTH CENTRAL AND SOUTHEAST INDIANA

CITY           SKY/WX    TMP DP  RH WIND       PRES   REMARKS
BLOOMINGTON    CLOUDY    78  62  57 S8        29.81S
MADISON *+     SUNNY     79  59  50 SE9       29.86F
SEYMOUR +      MOSUNNY   81  63  54 S9G16     29.82S

$$




USA.gov is the U.S. government's official web portal to all federal, state and local government web resources and services.